Iridium 75 - Orbit

View from above orbital plane
View from above orbital plane
View from above satellite
View from above satellite

Ground track
Ground track

The orbit data is extracted from the following two-line orbital elements,

1 25346U 98032E   13145.46228409  .00000223  00000-0  72631-4 0  3366
2 25346 086.3968 124.2812 0002284 104.4282 042.1298 14.34213322787002
Epoch (UTC): 25 May 2013 11:05:41
Eccentricity: 0.0002284
inclination: 86.3968°
perigee height: 776 km
apogee height: 779 km
right ascension of ascending node: 124.2812°
argument of perigee: 104.4282°
revolutions per day: 14.34213322
mean anomaly at epoch: 42.1298°
orbit number at epoch: 78700

The dashed part of the orbit path shows where the satellite is in the earth's shadow,  

Developed and maintained by Chris Peat, Heavens-Above GmbH. Please read the updated FAQ before sending e-mail. Imprint. DLR